TimeEDT,TemperatureF,Dew PointF,Humidity,Sea Level PressureIn,VisibilityMPH,Wind Direction,Wind SpeedMPH,Gust SpeedMPH,PrecipitationIn,Events,Conditions,WindDirDegrees,DateUTC
12:14 AM,59.0,53.6,82,29.85,10.0,West,8.1,-,N/A,,Scattered Clouds,270,2013-07-28 04:14:00
12:34 AM,59.0,51.8,77,29.86,10.0,West,10.4,-,N/A,,Clear,270,2013-07-28 04:34:00
12:55 AM,59.0,51.8,77,29.86,10.0,West,8.1,-,N/A,,Clear,260,2013-07-28 04:55:00
1:14 AM,57.2,51.8,82,29.86,10.0,West,9.2,-,N/A,,Clear,280,2013-07-28 05:14:00
1:34 AM,57.2,51.8,82,29.86,10.0,West,6.9,-,N/A,,Clear,280,2013-07-28 05:34:00
1:54 AM,57.2,51.8,82,29.86,10.0,West,5.8,-,N/A,,Clear,270,2013-07-28 05:54:00
2:14 AM,57.2,51.8,82,29.85,10.0,West,5.8,-,N/A,,Clear,260,2013-07-28 06:14:00
2:34 AM,55.4,51.8,88,29.85,10.0,Calm,Calm,-,N/A,,Clear,0,2013-07-28 06:34:00
2:54 AM,55.4,51.8,88,29.85,10.0,WSW,4.6,-,N/A,,Clear,250,2013-07-28 06:54:00
3:14 AM,55.4,51.8,88,29.85,10.0,SW,4.6,-,N/A,,Clear,230,2013-07-28 07:14:00
3:34 AM,55.4,51.8,88,29.85,10.0,SSW,4.6,-,N/A,,Clear,210,2013-07-28 07:34:00
3:54 AM,55.4,51.8,88,29.85,10.0,WSW,4.6,-,N/A,,Clear,240,2013-07-28 07:54:00
4:14 AM,55.4,51.8,88,29.86,10.0,SW,5.8,-,N/A,,Clear,230,2013-07-28 08:14:00
4:34 AM,55.4,51.8,88,29.86,10.0,WSW,6.9,-,N/A,,Clear,240,2013-07-28 08:34:00
4:54 AM,55.4,51.8,88,29.86,10.0,SW,6.9,-,N/A,,Clear,230,2013-07-28 08:54:00
5:14 AM,53.6,50.0,88,29.86,10.0,SW,6.9,-,N/A,,Clear,230,2013-07-28 09:14:00
5:34 AM,53.6,51.8,94,29.87,10.0,SW,6.9,-,N/A,,Clear,230,2013-07-28 09:34:00
5:54 AM,53.6,50.0,88,29.87,10.0,SW,6.9,-,N/A,,Clear,230,2013-07-28 09:54:00
6:14 AM,55.4,51.8,88,29.87,10.0,SW,5.8,-,N/A,,Clear,230,2013-07-28 10:14:00
6:34 AM,55.4,51.8,88,29.88,10.0,SW,6.9,-,N/A,,Clear,220,2013-07-28 10:34:00
6:54 AM,55.4,51.8,88,29.88,10.0,SW,6.9,-,N/A,,Clear,230,2013-07-28 10:54:00
7:14 AM,55.4,51.8,88,29.88,10.0,SW,6.9,-,N/A,,Clear,220,2013-07-28 11:14:00
7:35 AM,57.2,51.8,82,29.89,10.0,SW,6.9,-,N/A,,Clear,220,2013-07-28 11:35:00
7:54 AM,57.2,51.8,82,29.89,10.0,SW,5.8,-,N/A,,Clear,230,2013-07-28 11:54:00
8:14 AM,57.2,51.8,82,29.90,10.0,WSW,9.2,16.1,N/A,,Clear,240,2013-07-28 12:14:00
8:34 AM,59.0,51.8,77,29.90,10.0,SW,10.4,-,N/A,,Scattered Clouds,220,2013-07-28 12:34:00
8:54 AM,60.8,51.8,72,29.90,10.0,WSW,9.2,-,N/A,,Mostly Cloudy,240,2013-07-28 12:54:00
9:15 AM,60.8,51.8,72,29.90,10.0,SW,11.5,-,N/A,,Scattered Clouds,220,2013-07-28 13:15:00
9:34 AM,60.8,51.8,72,29.90,10.0,SSW,9.2,16.1,N/A,,Clear,210,2013-07-28 13:34:00
9:54 AM,62.6,51.8,68,29.90,10.0,SSW,12.7,-,N/A,,Scattered Clouds,210,2013-07-28 13:54:00
10:15 AM,62.6,51.8,68,29.89,10.0,SW,13.8,18.4,N/A,,Scattered Clouds,220,2013-07-28 14:15:00
10:34 AM,62.6,50.0,63,29.89,10.0,SW,12.7,19.6,N/A,,Scattered Clouds,220,2013-07-28 14:34:00
10:54 AM,62.6,48.2,59,29.89,10.0,SW,10.4,18.4,N/A,,Scattered Clouds,230,2013-07-28 14:54:00
11:14 AM,64.4,51.8,64,29.89,10.0,SW,12.7,17.3,N/A,,Scattered Clouds,230,2013-07-28 15:14:00
11:34 AM,64.4,50.0,59,29.89,10.0,SW,15.0,21.9,N/A,,Scattered Clouds,230,2013-07-28 15:34:00
11:54 AM,66.2,50.0,56,29.89,10.0,WSW,11.5,19.6,N/A,,Mostly Cloudy,240,2013-07-28 15:54:00
12:14 PM,64.4,50.0,59,29.89,10.0,SW,15.0,19.6,N/A,,Mostly Cloudy,230,2013-07-28 16:14:00
12:34 PM,66.2,51.8,60,29.89,10.0,SW,13.8,18.4,N/A,,Mostly Cloudy,220,2013-07-28 16:34:00
12:54 PM,64.4,51.8,64,29.89,10.0,SW,10.4,17.3,N/A,,Overcast,220,2013-07-28 16:54:00
1:14 PM,66.2,51.8,60,29.89,10.0,SW,13.8,23.0,N/A,,Mostly Cloudy,230,2013-07-28 17:14:00
1:34 PM,66.2,50.0,56,29.89,10.0,WSW,10.4,17.3,N/A,,Overcast,240,2013-07-28 17:34:00
1:54 PM,64.4,50.0,59,29.90,10.0,WSW,12.7,18.4,N/A,,Overcast,250,2013-07-28 17:54:00
2:14 PM,66.2,50.0,56,29.90,10.0,WSW,15.0,24.2,N/A,,Overcast,240,2013-07-28 18:14:00
2:34 PM,66.2,51.8,60,29.90,10.0,SW,12.7,17.3,N/A,,Mostly Cloudy,230,2013-07-28 18:34:00
2:54 PM,64.4,50.0,59,29.90,10.0,SW,9.2,16.1,N/A,,Overcast,230,2013-07-28 18:54:00
3:14 PM,64.4,51.8,64,29.90,10.0,SW,6.9,17.3,N/A,,Overcast,220,2013-07-28 19:14:00
3:34 PM,66.2,51.8,60,29.90,10.0,SSW,13.8,-,N/A,,Mostly Cloudy,210,2013-07-28 19:34:00
3:54 PM,66.2,51.8,60,29.90,10.0,SSW,11.5,-,N/A,,Mostly Cloudy,210,2013-07-28 19:54:00
4:14 PM,66.2,51.8,60,29.90,10.0,SW,13.8,18.4,N/A,,Overcast,230,2013-07-28 20:14:00
4:34 PM,64.4,50.0,59,29.90,10.0,WSW,13.8,18.4,N/A,,Overcast,240,2013-07-28 20:34:00
4:54 PM,64.4,51.8,64,29.91,10.0,West,13.8,21.9,N/A,,Mostly Cloudy,270,2013-07-28 20:54:00
5:14 PM,66.2,53.6,64,29.91,10.0,WNW,13.8,-,N/A,,Scattered Clouds,290,2013-07-28 21:14:00
5:34 PM,66.2,51.8,60,29.92,10.0,WSW,13.8,18.4,N/A,,Scattered Clouds,250,2013-07-28 21:34:00
5:54 PM,64.4,51.8,64,29.92,10.0,West,10.4,19.6,N/A,,Scattered Clouds,260,2013-07-28 21:54:00
6:14 PM,66.2,51.8,60,29.92,10.0,WSW,10.4,-,N/A,,Mostly Cloudy,250,2013-07-28 22:14:00
6:34 PM,66.2,50.0,56,29.92,10.0,West,9.2,17.3,N/A,,Scattered Clouds,270,2013-07-28 22:34:00
6:54 PM,64.4,51.8,64,29.93,10.0,WSW,9.2,-,N/A,,Scattered Clouds,250,2013-07-28 22:54:00
7:14 PM,66.2,51.8,60,29.93,10.0,WSW,8.1,-,N/A,,Mostly Cloudy,250,2013-07-28 23:14:00
7:34 PM,64.4,51.8,64,29.94,10.0,West,10.4,16.1,N/A,,Mostly Cloudy,260,2013-07-28 23:34:00
7:54 PM,64.4,51.8,64,29.95,10.0,West,9.2,-,N/A,,Mostly Cloudy,280,2013-07-28 23:54:00
8:14 PM,60.8,53.6,77,29.95,10.0,West,5.8,-,N/A,Rain,Light Rain,280,2013-07-29 00:14:00
8:34 PM,62.6,53.6,72,29.96,10.0,West,5.8,-,N/A,,Overcast,280,2013-07-29 00:34:00
8:54 PM,60.8,51.8,72,29.96,10.0,West,4.6,-,N/A,,Scattered Clouds,270,2013-07-29 00:54:00
9:14 PM,60.8,51.8,72,29.96,10.0,West,3.5,-,N/A,,Scattered Clouds,270,2013-07-29 01:14:00
9:34 PM,60.8,51.8,72,29.97,10.0,West,3.5,-,N/A,,Scattered Clouds,260,2013-07-29 01:34:00
9:54 PM,60.8,51.8,72,29.97,10.0,Calm,Calm,-,N/A,,Scattered Clouds,0,2013-07-29 01:54:00
10:14 PM,60.8,51.8,72,29.98,10.0,West,3.5,-,N/A,,Clear,270,2013-07-29 02:14:00
10:34 PM,60.8,51.8,72,29.98,10.0,WSW,5.8,-,N/A,,Mostly Cloudy,250,2013-07-29 02:34:00
10:54 PM,60.8,51.8,72,29.98,10.0,WSW,4.6,-,N/A,,Scattered Clouds,250,2013-07-29 02:54:00
11:14 PM,60.8,51.8,72,29.99,10.0,WSW,6.9,-,N/A,,Clear,240,2013-07-29 03:14:00
11:34 PM,60.8,51.8,72,29.99,10.0,WSW,8.1,-,N/A,,Clear,240,2013-07-29 03:34:00
11:54 PM,59.0,51.8,77,29.99,10.0,WSW,6.9,-,N/A,,Clear,240,2013-07-29 03:54:00